This is the latest recevied weather packets stored in our database for station/object YO8SDE-8. If no packets are shown the sender has not sent any weather packets the latest 10 day(s).
| Time | Temp. | Humidity | Pressure | Rain* | Wind** | Luminosity | Snow |
|---|---|---|---|---|---|---|---|
| 1778081158 | 30° C | 23% | 998.8 hPa | 0 mm | - | - | - |
| 1778080858 | 30° C | 22% | 998.9 hPa | 0 mm | - | - | - |
| 1778080558 | 30° C | 23% | 998.9 hPa | 0 mm | - | - | - |
| 1778080258 | 30.56° C | 22% | 998.9 hPa | 0 mm | - | - | - |
| 1778079958 | 30.56° C | 23% | 998.9 hPa | 0 mm | - | - | - |
| 1778079658 | 30.56° C | 24% | 998.8 hPa | 0 mm | - | - | - |
| 1778079358 | 30.56° C | 22% | 998.8 hPa | 0 mm | - | - | - |
| 1778079058 | 31.11° C | 24% | 998.9 hPa | 0 mm | - | - | - |
| 1778078758 | 31.11° C | 22% | 998.8 hPa | 0 mm | - | - | - |
| 1778078458 | 31.11° C | 22% | 998.8 hPa | 0 mm | - | - | - |
| 1778078158 | 31.67° C | 22% | 998.9 hPa | 0 mm | - | - | - |
| 1778077858 | 31.67° C | 22% | 998.8 hPa | 0 mm | - | - | - |
| 1778077558 | 31.67° C | 22% | 998.8 hPa | 0 mm | - | - | - |
| 1778077258 | 31.67° C | 22% | 998.6 hPa | 0 mm | - | - | - |
| 1778076958 | 31.67° C | 20% | 998.9 hPa | 0 mm | - | - | - |
| 1778076658 | 32.22° C | 20% | 998.9 hPa | 0 mm | - | - | - |
| 1778076358 | 32.22° C | 20% | 998.9 hPa | 0 mm | - | - | - |
| 1778076058 | 32.22° C | 20% | 999 hPa | 0 mm | - | - | - |
| 1778075758 | 32.22° C | 20% | 998.8 hPa | 0 mm | - | - | - |
| 1778075458 | 32.22° C | 21% | 999 hPa | 0 mm | - | - | - |
| 1778075158 | 31.67° C | 20% | 999 hPa | 0 mm | - | - | - |
| 1778074858 | 32.22° C | 20% | 998.9 hPa | 0 mm | - | - | - |
| 1778074558 | 32.22° C | 21% | 998.6 hPa | 0 mm | - | - | - |
| 1778074258 | 32.22° C | 21% | 998.8 hPa | 0 mm | - | - | - |
| 1778073958 | 32.22° C | 21% | 998.7 hPa | 0 mm | - | - | - |
* Rain latest hour (hover to see other rain measurements)
** Current wind speed in m/s (hover to see current wind gust speed)